Regional Weather Roundup
Issued by NWS

Home | Current Version | Previous Version | Graphics & Text | Print | Product List | Glossary On
Versions: 1 2 3 4 5 6 7 8 9 10 11 12 13 14 15 16 17 18 19 20 21 22 23 24 25 26 27 28 29 30 31 32 33 34 35 36 37 38 39 40 41 42 43 44 45 46 47 48 49 50
000
ASUS45 KBOI 110710
RWRID

IDAHO REGIONAL WEATHER ROUNDUP
NATIONAL WEATHER SERVICE BOISE ID
1200 AM MST THU FEB 11 2016

NOTE: "FAIR" INDICATES FEW OR NO CLOUDS BELOW 12000 FEET
WITH NO SIGNIFICANT WEATHER AND/OR OBSTRUCTIONS TO VISIBILITY

IDZ012-014-110800-
SOUTHWEST IDAHO


CITY           SKY/WX    TMP DP  RH WIND       PRES   REMARKS
BOISE          PTCLDY    31  29  92 CALM      30.42S FOG
CALDWELL       PTCLDY    29  28  96 CALM      30.44S FOG
MOUNTAIN HOME  FOG       29  29  99 E2        30.42F VSB<1/4
$$

IDZ016-017-110800-
SOUTHCENTRAL IDAHO


CITY           SKY/WX    TMP DP  RH WIND       PRES   REMARKS
JEROME         CLEAR     28  23  81 E10       30.39F WCI  19
TWIN FALLS     CLEAR     30  28  92 SE5       30.38F WCI  25
$$

IDZ019>023-110800-
SOUTHEAST IDAHO


CITY           SKY/WX    TMP DP  RH WIND       PRES   REMARKS
IDAHO FALLS    CLOUDY    17  12  80 CALM      30.40S
POCATELLO      CLOUDY    20  18  92 CALM      30.40F
REXBURG        CLOUDY    20  16  84 E3        30.38F
$$

IDZ006-010-011-018-031-032-110800-
CENTRAL IDAHO MOUNTAINS


CITY           SKY/WX    TMP DP  RH WIND       PRES   REMARKS
MCCALL         PTCLDY    29  26  89 E3        30.34S
HAILEY         CLEAR     23  19  86 NW7       30.39S WCI  15
STANLEY          N/A     19  14  81 SE6       30.38R WCI  11
SALMON         CLOUDY    18  16  93 N3        30.38F
CHALLIS        CLOUDY    18  15  88 S3        30.36R
$$

IDZ002-004-006-007-026-110800-
NORTHERN IDAHO


CITY           SKY/WX    TMP DP  RH WIND       PRES   REMARKS
LEWISTON       CLOUDY    47  35  63 S6        30.30R
LOWELL           N/A     38  36  92 N3        30.36R
COEUR D`ALENE  CLOUDY    37  34  87 S7        30.27R WCI  32
MULLAN PASS    CLOUDY    34  30  85 VRB6      30.24R WCI  29
$$



USA.gov is the U.S. government's official web portal to all federal, state and local government web resources and services.